Weather History for Pine Belt, MS

Change the Weather History Date:

Wednesday, March 27, 2013

  Actual Average Record
Temperature  
Mean Temperature 43 °F -  
Max Temperature 60 °F 70 °F 82 °F (2004)
Min Temperature 26 °F 47 °F 26 °F (2013)
Degree Days  
Heating Degree Days 22    
Moisture  
Dew Point 27 °F    
Average Humidity 60    
Maximum Humidity 93    
Minimum Humidity 27    
Precipitation  
Precipitation 0.00 in - - ()
Sea Level Pressure  
Sea Level Pressure 30.37 in    
Wind  
Wind Speed 2 mph (NNE)    
Max Wind Speed 7 mph    
Max Gust Speed -    
Visibility 10 miles    
Events      
Averages and records for this station are not official NWS values.
T = Trace of Precipitation, MM = Missing Value Source: NWS Daily Summary

Daily Weather History Graph

Daily Weather History Graph

Search for Another Location

Airport:

Trip Planner

Search our weather history database for the weather conditions in past years. The results will help you decide how hot, cold, wet, or windy it might be!

Date:

Astronomy

Mar. 27, 2013 Rise Set
Actual Time 6:51 AM CDT 7:13 PM CDT
Civil Twilight 6:27 AM CDT 7:38 PM CDT
Nautical Twilight 5:59 AM CDT 8:06 PM CDT
Astronomical Twilight 5:30 AM CDT 8:35 PM CDT
Moon 7:51 PM CDT (3/27) 6:46 AM CDT (3/27)
Length of Visible Light 13h 10m
Length of Day
12h 21m
Full, 100% of the Moon is Illuminated
Mar 27
Full
Apr 2
Last Quarter
Apr 10
New
Apr 18
First Quarter
Apr 25
Full

Hourly Weather History & Observations

Time (CDT) Temp. Windchill Dew Point Humidity Pressure Visibility Wind Dir Wind Speed Gust Speed Precip Events Conditions
12:15 AM 35.6 °F 30.7 °F 24.8 °F 65% 30.39 in 10.0 mi North 5.8 mph - N/A   Clear
12:35 AM 35.6 °F 31.7 °F 24.8 °F 65% 30.39 in 10.0 mi North 4.6 mph - N/A   Clear
12:55 AM 35.6 °F 32.8 °F 24.8 °F 65% 30.39 in 10.0 mi North 3.5 mph - N/A   Clear
1:15 AM 33.8 °F - 24.8 °F 70% 30.39 in 10.0 mi Calm Calm - N/A   Clear
1:35 AM 32.0 °F - 26.6 °F 80% 30.39 in 10.0 mi Calm Calm - N/A   Clear
1:55 AM 30.2 °F - 24.8 °F 80% 30.38 in 10.0 mi Calm Calm - N/A   Clear
2:15 AM 30.2 °F - 26.6 °F 86% 30.37 in 10.0 mi Calm Calm - N/A   Clear
2:35 AM 30.2 °F - 26.6 °F 86% 30.37 in 10.0 mi Calm Calm - N/A   Clear
2:55 AM 30.2 °F - 24.8 °F 80% 30.37 in 10.0 mi Calm Calm - N/A   Clear
3:15 AM 30.2 °F - 26.6 °F 86% 30.37 in 10.0 mi Calm Calm - N/A   Clear
3:35 AM 28.4 °F - 24.8 °F 86% 30.37 in 10.0 mi Calm Calm - N/A   Clear
3:55 AM 28.4 °F - 24.8 °F 86% 30.37 in 10.0 mi Calm Calm - N/A   Clear
4:15 AM 28.4 °F - 24.8 °F 86% 30.38 in 9.0 mi Calm Calm - N/A   Clear
4:35 AM 28.4 °F - 24.8 °F 86% 30.38 in 9.0 mi Calm Calm - N/A   Clear
4:55 AM 28.4 °F - 24.8 °F 86% 30.38 in 10.0 mi Calm Calm - N/A   Clear
5:15 AM 28.4 °F - 24.8 °F 86% 30.38 in 10.0 mi Calm Calm - N/A   Clear
5:35 AM 28.4 °F - 24.8 °F 86% 30.38 in 10.0 mi Calm Calm - N/A   Clear
5:55 AM 28.4 °F - 24.8 °F 86% 30.38 in 9.0 mi Calm Calm - N/A   Clear
6:15 AM 26.6 °F - 23.0 °F 86% 30.39 in 10.0 mi Calm Calm - N/A   Clear
6:35 AM 28.4 °F - 23.0 °F 80% 30.40 in 10.0 mi Calm Calm - N/A   Clear
6:55 AM 26.6 °F - 21.2 °F 80% 30.40 in 9.0 mi Calm Calm - N/A   Clear
7:15 AM 28.4 °F - 24.8 °F 86% 30.41 in 9.0 mi Calm Calm - N/A   Clear
7:35 AM 28.4 °F - 26.6 °F 93% 30.42 in 10.0 mi Calm Calm - N/A   Clear
7:55 AM 33.8 °F - 28.4 °F 81% 30.43 in 10.0 mi Calm Calm - N/A   Clear
8:15 AM 37.4 °F 34.9 °F 28.4 °F 70% 30.44 in 10.0 mi NNE 3.5 mph - N/A   Clear
8:35 AM 39.2 °F 37.0 °F 28.4 °F 65% 30.44 in 10.0 mi NE 3.5 mph - N/A   Clear
8:55 AM 39.2 °F 37.0 °F 28.4 °F 65% 30.45 in 10.0 mi ENE 3.5 mph - N/A   Clear
9:15 AM 41.0 °F 39.0 °F 28.4 °F 61% 30.45 in 10.0 mi ESE 3.5 mph - N/A   Clear
9:35 AM 42.8 °F 38.6 °F 26.6 °F 53% 30.45 in 10.0 mi SSE 6.9 mph - N/A   Clear
9:55 AM 44.6 °F 42.2 °F 26.6 °F 49% 30.45 in 10.0 mi ESE 4.6 mph - N/A   Clear
10:15 AM 46.4 °F 43.5 °F 26.6 °F 46% 30.46 in 10.0 mi ENE 5.8 mph - N/A   Clear
10:35 AM 46.4 °F 44.3 °F 26.6 °F 46% 30.46 in 10.0 mi ENE 4.6 mph - N/A   Clear
10:55 AM 46.4 °F - 24.8 °F 43% 30.45 in 9.0 mi Calm Calm - N/A   Clear
11:15 AM 46.4 °F 45.2 °F 24.8 °F 43% 30.45 in 10.0 mi ESE 3.5 mph - N/A   Clear
11:35 AM 48.2 °F - 24.8 °F 40% 30.45 in 10.0 mi WSW 4.6 mph - N/A   Clear
11:55 AM 48.2 °F - 24.8 °F 40% 30.45 in 10.0 mi East 3.5 mph - N/A   Clear
12:15 PM 51.8 °F - 24.8 °F 35% 30.44 in 10.0 mi West 3.5 mph - N/A   Clear
12:35 PM 51.8 °F - 23.0 °F 33% 30.43 in 10.0 mi North - - N/A   Clear
12:55 PM 53.6 °F - 24.8 °F 33% 30.41 in 10.0 mi Calm Calm - N/A   Clear
1:15 PM 53.6 °F - 24.8 °F 33% 30.41 in 10.0 mi North 4.6 mph - N/A   Clear
1:35 PM 55.4 °F - 26.6 °F 33% 30.39 in 10.0 mi North 6.9 mph - N/A   Clear
1:55 PM 55.4 °F - 24.8 °F 31% 30.38 in 10.0 mi NE 3.5 mph - N/A   Clear
2:15 PM 55.4 °F - 24.8 °F 31% 30.38 in 10.0 mi North 6.9 mph - N/A   Clear
2:35 PM 57.2 °F - 26.6 °F 31% 30.36 in 10.0 mi Calm Calm - N/A   Clear
2:55 PM 57.2 °F - 24.8 °F 29% 30.35 in 10.0 mi North 6.9 mph - N/A   Clear
3:35 PM 60.8 °F - 26.6 °F 27% 30.33 in 10.0 mi WNW 6.9 mph - N/A   Clear
3:55 PM 60.8 °F - 26.6 °F 27% 30.33 in 10.0 mi Calm Calm - N/A   Clear
4:15 PM 59.0 °F - 26.6 °F 29% 30.32 in 10.0 mi Calm Calm - N/A   Clear
4:35 PM 59.0 °F - 26.6 °F 29% 30.32 in 10.0 mi East 3.5 mph - N/A   Clear
4:55 PM 60.8 °F - 26.6 °F 27% 30.31 in 10.0 mi North 3.5 mph - N/A   Clear
5:15 PM 60.8 °F - 26.6 °F 27% 30.31 in 10.0 mi NNE 3.5 mph - N/A   Clear
5:35 PM 60.8 °F - 26.6 °F 27% 30.31 in 10.0 mi Calm Calm - N/A   Clear
5:55 PM 60.8 °F - 26.6 °F 27% 30.31 in 10.0 mi Calm Calm - N/A   Clear
6:15 PM 59.0 °F - 26.6 °F 29% 30.31 in 10.0 mi Calm Calm - N/A   Clear
6:35 PM 59.0 °F - 26.6 °F 29% 30.31 in 10.0 mi Calm Calm - N/A   Clear
6:55 PM 57.2 °F - 28.4 °F 33% 30.30 in 10.0 mi Calm Calm - N/A   Clear
7:15 PM 51.8 °F - 33.8 °F 50% 30.30 in 10.0 mi Calm Calm - N/A   Clear
7:35 PM 48.2 °F - 33.8 °F 58% 30.31 in 10.0 mi Calm Calm - N/A   Clear
7:55 PM 46.4 °F - 33.8 °F 62% 30.31 in 10.0 mi Calm Calm - N/A   Clear
8:15 PM 44.6 °F - 35.6 °F 71% 30.31 in 10.0 mi Calm Calm - N/A   Clear
8:35 PM 42.8 °F - 33.8 °F 70% 30.31 in 10.0 mi Calm Calm - N/A   Clear
8:55 PM 42.8 °F - 32.0 °F 66% 30.31 in 10.0 mi Calm Calm - N/A   Clear
9:15 PM 41.0 °F - 32.0 °F 70% 30.30 in 10.0 mi Calm Calm - N/A   Clear
9:35 PM 42.8 °F - 32.0 °F 66% 30.31 in 10.0 mi Calm Calm - N/A   Clear
9:55 PM 42.8 °F - 32.0 °F 66% 30.31 in 10.0 mi Calm Calm - N/A   Clear
10:15 PM 41.0 °F - 33.8 °F 76% 30.31 in 10.0 mi Calm Calm - N/A   Clear
10:35 PM 39.2 °F - 33.8 °F 81% 30.31 in 10.0 mi Calm Calm - N/A   Clear
10:55 PM 39.2 °F - 33.8 °F 81% 30.31 in 10.0 mi Calm Calm - N/A   Clear
11:15 PM 39.2 °F - 32.0 °F 75% 30.31 in 10.0 mi Calm Calm - N/A   Clear
11:35 PM 37.4 °F - 32.0 °F 81% 30.31 in 10.0 mi Calm Calm - N/A   Clear
11:55 PM 37.4 °F - 32.0 °F 81% 30.32 in 10.0 mi Calm Calm - N/A   Clear